Showing default

ICEYE-X40, 60549

Orbit data source: Space-Track

ICEYE-X40, 60549 is a payload satellite owned by Yahsat (AE) in SSO that was launched on Fri, 16 Aug 2024 UTC via an FALCON 9 launch vehicle from the Air Force Western Test Range (AFWTR). Payload-class satellites include a variety of spacecraft equipped with specific instruments for various scientific and technological missions. These include communications satellites like Starlink; space stations such as the ISS; scientific satellites like the Hubble; Earth observation satellites from companies like Planet Labs, Umbra, and HawkEye 360; GPS; miniature CubeSats for education and research; and military/defense satellites.

Loading next visibility...
Identifier
60549, 2024-149CK
Orbit
SSO
Country
Flag of AEAE / UAE
Related business
Manufacturer
ICEYE
Mission
Operational Commercial Radar Imaging
Bus & Motor
ICEYE, Unknown motor
Mass
80 kg wet, 80 kg dry
Launch date (UTC)
2024-08-16 (1 year ago)
Launch vehicle
FALCON 9
Launch site
Air Force Western Test Range (AFWTR)
Object type
Payload
Rocket body
Debris
Shape & HBR
Box + 1 Pan, 0.8 m
Radar Cross Section
0.776 m², Medium (>0.1 m² and < 1m²)

Expand to show TLE details & history
Last TLE update: 7 hours ago

TLE from 7 hours ago
0 ICEYE-X40
1 60549U 24149CK  25297.75437530  .00002532  00000-0  22574-3 0  9998
2 60549  97.7041  12.9244 0005932 136.6295 223.5394 14.96867407 64849
Epoch: 2025-10-24T18:06Z
TLE epoch observation values (Epoch: 2025-10-24T18:06:18.025Z)
Latitude
-0.00009°
Longitude
67.95457°
Altitude
582.625 km
Speed
7.567 km/s
True Right ascension
00h 51m 41s
True Declination
0° 00' 00"
Sunlit
Object was in full shadow at epoch
Visualization orbit readout
Latitude
Unknown
Longitude
Unknown
Altitude
Unknown
Speed
Unknown
Apparent Right ascension
Unknown
Apparent Declination
Unknown
Sunlit
N/A
Visualization observer readout
Local Sidereal Time
19:58:30
Azimuth
Unknown
Elevation
Unknown
Doppler factor
Unknown
Orbital elements
Apogee altitude
577.716 km
Perigee altitude
569.468 km
Semi-major axis
6,951.729 km
Eccentricity
0.00059
Inclination
97.7041°
RAAN
12.9244°
Arg. of periapsis
136.6295°
True anomaly
223.4926°
Mean anomaly
223.5394°
Eccentric anomaly
223.516°
Mean motion
3.74459 °/min
Orbital period
96.14 mins
BSTAR
0.00022574
Loading maneuver chart data...
Computing Atmospheric mass density...
Loading historical data...
Loading historical data...
Loading historical data...
Loading historical data...
Loading historical data...
Loading historical data...
Loading historical data...

Documentation

Showing up to 5 results
|